Location: Paddlesworth
(51.1000°N, 1.1333°E)
Time: 09:10:13
(UTC+00:00)

Cosmos 44 Rocket - Pass Details

Date: 11 May 2021
Orbit: 636 x 754 km, 65.1° (Epoch: 15 June)

Event Time Altitude Azimuth Distance (km) Brightness Sun altitude
Rises 23:20:09 0° 319° (NW) 3,216 7.7 -20.4°
Reaches altitude 10° 23:22:37 10° 324° (NW) 2,288 6.8 -20.5°
Maximum altitude 23:27:45 51° 41° (NE) 939 4.2 -20.6°
Enters shadow 23:31:23 18° 112° (ESE) 1,749 5.1 -20.6°
